Flag for U.S.A. Weather past 2 weeks in Lakewood, Colorado, U.S.A.

Now
29 °F

Ice fog.


Feels Like: 22 °F
Forecast: 20 / 43 °F
Wind: 7 mph from South

Location: Centennial Airport

Current Time: Dec 19, 2014 at 12:37:30 AM

Latest Report: Dec 18, 2014 at 11:53 PM


Visibility: 5 mi

Pressure: 30.14 "Hg

Humidity: 93%

Dew point: 27 °F

Location of LakewoodLocation

Historic Weather in Lakewood — Graph

°F

Lakewood temperature yesterday

Maximum temperature yesterday: 44 °F (at 2:53 PM)
Minimum temperature yesterday: 25 °F (at 1:53 AM)
Average temperature yesterday: 32 °F

Past Weeks' High & Low Weather Summary

 TemperatureHumidityPressure
High67 °F (Dec 12, 1:53 PM)100% (Dec 14, 9:53 AM)30.42 "Hg (Dec 14, 9:53 AM)
Low19 °F (Dec 16, 2:53 AM)9% (Dec 12, 12:53 PM)29.66 "Hg (Dec 14, 12:53 AM)
Average37 °F54%30.10 "Hg
* Reported Dec 3 10:53 PM — Dec 18 10:53 PM, Lakewood, Weather by CustomWeather, © 2014

Note: Actual official high and low records may vary slightly from our data, if they occured in-between our weather recording intervals... More about our weather records

Advertising

Lakewood weather history for previous 24 hours

 ConditionsComfort  
Time TempWeatherWind HumidityBarometerVisibility
10:53 PM
Dec 18
28 °FIce fog.5 mph93%30.16 "Hg5 mi
9:53 PM28 °FIce fog.3 mph93%30.16 "Hg6 mi
8:53 PM29 °FPassing clouds.3 mph85%30.16 "Hg7 mi
7:53 PM29 °FPassing clouds.5 mph89%30.19 "Hg7 mi
6:53 PM31 °FPartly cloudy.No wind85%30.16 "Hg7 mi
5:53 PM34 °FPartly cloudy.5 mph76%30.13 "Hg8 mi
4:53 PM36 °FPartly cloudy.7 mph70%30.10 "Hg6 mi
3:53 PM40 °FPassing clouds.9 mph60%30.06 "Hg10 mi
2:53 PM44 °FPassing clouds.5 mph45%30.03 "Hg10 mi
1:53 PM42 °FPassing clouds.No wind49%30.03 "Hg10 mi
12:53 PM40 °FPassing clouds.3 mph55%30.04 "Hg10 mi
11:53 AM38 °FScattered clouds.5 mph60%30.08 "Hg10 mi
10:53 AM35 °FPartly sunny.3 mph67%30.10 "Hg10 mi
9:53 AM33 °FPartly sunny.No wind78%30.11 "Hg10 mi
8:53 AM31 °FPartly sunny.3 mph85%30.09 "Hg10 mi
7:53 AM25 °FPartly sunny.No wind100%30.11 "Hg10 mi
6:53 AM27 °FPassing clouds.3 mph92%30.06 "Hg10 mi
5:53 AM27 °FPassing clouds.5 mph96%30.05 "Hg7 mi
4:53 AM28 °FPassing clouds.7 mph93%30.03 "Hg8 mi
3:53 AM28 °FPassing clouds.7 mph93%30.02 "Hg7 mi
2:53 AM25 °FIce fog.3 mph92%30.03 "Hg6 mi
1:53 AM25 °FIce fog.5 mph92%30.03 "Hg6 mi
12:53 AM27 °FPassing clouds.No wind89%30.03 "Hg8 mi
Weather by CustomWeather, © 2014

See weather overviewHow to use our weather pages